Satellite-Ground Cal/Val Region Overpasses Predictions

Prediction of Satellite NPP Overpassing Cal/Val Region: PacNW

Region Location: (Latitude: 10.00, Longitude: 139.50) to (Latitude: 22.70, Longitude: 165.60).

Table of predicted overpasses for the next 14.0 days since TLE Epoch: 4/15/2014
Interval Starting Time Starting Location Ending Time Ending Location
1 04/15/2014 14:57:15 ( 22.65, 161.77) 04/15/2014 15:00:50 ( 10.03, 158.75)
2 04/16/2014 03:47:51 ( 10.03, 143.89) 04/16/2014 03:51:26 ( 22.65, 140.87)
3 04/16/2014 14:39:20 ( 18.88, 165.59) 04/16/2014 14:41:51 ( 10.01, 163.50)
4 04/16/2014 16:19:45 ( 22.70, 141.16) 04/16/2014 16:21:40 ( 15.95, 139.51)
5 04/17/2014 03:28:52 ( 10.05, 148.64) 04/17/2014 03:32:27 ( 22.67, 145.62)
6 04/17/2014 16:00:45 ( 22.67, 145.91) 04/17/2014 16:04:20 ( 10.06, 142.89)
7 04/18/2014 03:09:51 ( 10.01, 153.40) 04/18/2014 03:13:27 ( 22.69, 150.37)
8 04/18/2014 15:41:46 ( 22.65, 150.66) 04/18/2014 15:45:21 ( 10.03, 147.64)
9 04/19/2014 02:50:52 ( 10.03, 158.15) 04/19/2014 02:54:27 ( 22.65, 155.14)
10 04/19/2014 15:22:45 ( 22.69, 155.42) 04/19/2014 15:26:21 ( 10.01, 152.39)
11 04/20/2014 02:31:52 ( 10.06, 162.90) 04/20/2014 02:35:27 ( 22.68, 159.89)
12 04/20/2014 15:03:46 ( 22.67, 160.17) 04/20/2014 15:07:21 ( 10.05, 157.16)
13 04/21/2014 02:15:22 ( 18.83, 165.59) 04/21/2014 02:16:28 ( 22.70, 164.64)
14 04/21/2014 03:54:22 ( 10.02, 142.29) 04/21/2014 03:57:41 ( 21.70, 139.51)
15 04/21/2014 14:44:45 ( 22.70, 164.94) 04/21/2014 14:48:21 ( 10.02, 161.91)
16 04/21/2014 16:26:16 ( 22.64, 139.55) 04/21/2014 16:26:19 ( 22.47, 139.51)
17 04/22/2014 03:35:22 ( 10.04, 147.04) 04/22/2014 03:38:57 ( 22.66, 144.03)
18 04/22/2014 16:07:16 ( 22.68, 144.31) 04/22/2014 16:10:51 ( 10.06, 141.30)
19 04/23/2014 03:16:22 ( 10.01, 151.80) 04/23/2014 03:19:58 ( 22.69, 148.77)
20 04/23/2014 15:48:16 ( 22.65, 149.06) 04/23/2014 15:51:51 ( 10.03, 146.05)
21 04/24/2014 02:57:22 ( 10.04, 156.55) 04/24/2014 03:00:57 ( 22.66, 153.54)
22 04/24/2014 15:29:16 ( 22.68, 153.83) 04/24/2014 15:32:52 ( 10.00, 150.80)
23
